Main page
METAR-TAF:

METAR-TAF

Airports :

Crystal River Airport

Crystal River, Florida, United States

latitude: 28-52-02N, longitude: 082-34-17W, elevation: 10 ft

Current weather observation

The report was made 26 minutes ago, at 06:35 UTC
Wind 6 mph from the East
Temperature 68°F
Humidity 78%
Pressure 30.13 in. Hg
Visibility: 10 miles
Clear sky

METAR: KCGC 180635Z AUTO 09005KT 10SM CLR 20/16 A3013 RMK AO2

Time: 03:01 (07:01 UTC)


TAF: missing

Weather observations and forecasts of more than 4000 airports (METAR and TAF reports).

The available stations are represented by yellow and red dots on the map.

Hover mouse over dot to see the name of the station.

Then click to see weather observations and forecasts.

To change the map : click on the green buttons with a black cross to zoom in, on the green button with a dash to zoom out, or on the green arrows for adjacent maps.


METAR-TAF: